User: anonymous   Login
Location: Unspecified
(20.0000°S, 0.0000°E)
Time: 20:31:05
(UTC+00:00)
Language:

Cosmos 1825 Rocket - Orbit

View from above orbital plane
View from above orbital plane
View from above satellite
View from above satellite

Ground track
Ground track

The orbit is defined by the following mean orbital elements,

1 17567U          26088.23176036 +.00000000 +00000-0 +69900-4 0 00009
2 17567  82.5253  74.3906 0017848 191.1595 168.9228 14.86151061    00
Epoch (UTC): 29 March 2026 05:33:44
Eccentricity: 0.0017848
inclination: 82.5253°
perigee height: 598 km
apogee height: 622 km
right ascension of ascending node: 74.3906°
argument of perigee: 191.1595°
revolutions per day: 14.86151061
mean anomaly at epoch: 168.9228°

The dashed part of the orbit path shows where the satellite is in the earth's shadow,  

DLR